• In Österreich
  • Länderverzeichnis
  • Für 7 Tage
  • Wassertemperatur
  • Satellitenkarten
  • Wetterkarte
  • News
  • Widgets
  • user-avatar
    Anmelden

    Stündliche Wetter Belém

    Heute, 22 September, Samstag

    Zeit Temperatur Niederschläge Wind Luftdruck Luftfeuchtigkeit
    00:00 +26°C° 0 mm 2 m/S 757 mmHg 92%
    01:00 +26°C° 0 mm 2 m/S 757 mmHg 93%
    02:00 +25°C° 0 mm 2 m/S 756 mmHg 93%
    03:00 +25°C° 0 mm 2 m/S 756 mmHg 93%
    04:00 +25°C° 0 mm 2 m/S 756 mmHg 94%
    05:00 +25°C° 0 mm 1 m/S 756 mmHg 94%
    06:00 +25°C° 0 mm 1 m/S 757 mmHg 94%
    07:00 +26°C° 0 mm 2 m/S 757 mmHg 88%
    08:00 +28°C° 0 mm 2 m/S 758 mmHg 82%
    09:00 +30°C° 0 mm 2 m/S 758 mmHg 76%
    10:00 +31°C° 0 mm 2 m/S 758 mmHg 68%
    11:00 +34°C° 0 mm 2 m/S 758 mmHg 60%
    12:00 +36°C° 0 mm 2 m/S 757 mmHg 52%
    13:00 +36°C° 0.2 mm 2 m/S 757 mmHg 53%
    14:00 +36°C° 0.2 mm 2 m/S 756 mmHg 54%
    15:00 +35°C° 0.2 mm 2 m/S 756 mmHg 56%
    16:00 +32°C° 0.3 mm 2 m/S 755 mmHg 65%
    17:00 +30°C° 0.3 mm 2 m/S 755 mmHg 75%
    18:00 +28°C° 0.3 mm 2 m/S 755 mmHg 85%
    19:00 +28°C° 0 mm 2 m/S 756 mmHg 86%
    20:00 +27°C° 0 mm 2 m/S 756 mmHg 88%
    21:00 +27°C° 0 mm 2 m/S 756 mmHg 90%
    22:00 +27°C° 0 mm 2 m/S 757 mmHg 90%
    23:00 +26°C° 0 mm 2 m/S 757 mmHg 90%

    Morgen, 23 September, Sonntag

    Zeit Temperatur Niederschläge Wind Luftdruck Luftfeuchtigkeit
    00:00 +26°C° 0 mm 2 m/S 757 mmHg 90%
    01:00 +26°C° 0 mm 2 m/S 757 mmHg 91%
    02:00 +26°C° 0 mm 2 m/S 756 mmHg 92%
    03:00 +26°C° 0 mm 2 m/S 756 mmHg 92%
    04:00 +26°C° 0 mm 2 m/S 756 mmHg 93%
    05:00 +26°C° 0 mm 2 m/S 756 mmHg 93%
    06:00 +26°C° 0 mm 2 m/S 756 mmHg 94%
    07:00 +27°C° 0 mm 2 m/S 756 mmHg 88%
    08:00 +28°C° 0 mm 2 m/S 757 mmHg 82%
    09:00 +30°C° 0 mm 3 m/S 757 mmHg 75%
    10:00 +33°C° 0 mm 3 m/S 757 mmHg 67%
    11:00 +34°C° 0 mm 3 m/S 757 mmHg 59%
    12:00 +36°C° 0 mm 3 m/S 757 mmHg 51%
    13:00 +35°C° 0.2 mm 3 m/S 756 mmHg 55%
    14:00 +35°C° 0.2 mm 3 m/S 756 mmHg 59%
    15:00 +34°C° 0.2 mm 3 m/S 755 mmHg 63%
    16:00 +33°C° 0.4 mm 3 m/S 755 mmHg 69%
    17:00 +30°C° 0.4 mm 3 m/S 755 mmHg 75%
    18:00 +28°C° 0.4 mm 3 m/S 755 mmHg 82%
    19:00 +28°C° 0 mm 3 m/S 756 mmHg 83%
    20:00 +27°C° 0 mm 3 m/S 757 mmHg 84%
    21:00 +27°C° 0 mm 3 m/S 758 mmHg 85%
    22:00 +27°C° 0 mm 2 m/S 758 mmHg 86%
    23:00 +26°C° 0 mm 2 m/S 758 mmHg 87%

    übermorgen, 24 September, Montag

    Zeit Temperatur Niederschläge Wind Luftdruck Luftfeuchtigkeit
    00:00 +26°C° 0 mm 2 m/S 758 mmHg 88%
    01:00 +26°C° 0 mm 2 m/S 757 mmHg 89%
    02:00 +26°C° 0 mm 2 m/S 757 mmHg 90%
    03:00 +25°C° 0 mm 2 m/S 756 mmHg 91%
    04:00 +25°C° 0 mm 2 m/S 756 mmHg 91%
    05:00 +25°C° 0 mm 2 m/S 756 mmHg 92%
    06:00 +25°C° 0 mm 2 m/S 756 mmHg 92%
    07:00 +27°C° 0 mm 2 m/S 757 mmHg 86%
    08:00 +28°C° 0 mm 2 m/S 758 mmHg 79%
    09:00 +30°C° 0 mm 3 m/S 758 mmHg 72%
    10:00 +31°C° 0 mm 3 m/S 758 mmHg 67%
    11:00 +33°C° 0 mm 3 m/S 758 mmHg 63%
    12:00 +34°C° 0 mm 2 m/S 758 mmHg 58%
    13:00 +35°C° 0 mm 3 m/S 757 mmHg 57%
    14:00 +35°C° 0 mm 3 m/S 756 mmHg 56%
    15:00 +35°C° 0 mm 3 m/S 756 mmHg 54%
    16:00 +32°C° 0.1 mm 2 m/S 756 mmHg 62%
    17:00 +31°C° 0.1 mm 2 m/S 756 mmHg 71%
    18:00 +29°C° 0.1 mm 2 m/S 756 mmHg 79%
    19:00 +28°C° 0.2 mm 2 m/S 757 mmHg 82%
    20:00 +27°C° 0.2 mm 2 m/S 757 mmHg 85%
    21:00 +27°C° 0.2 mm 2 m/S 758 mmHg 88%
    22:00 +26°C° 0 mm 2 m/S 758 mmHg 88%
    23:00 +26°C° 0 mm 2 m/S 758 mmHg 89%

    25 September, Dienstag

    Zeit Temperatur Niederschläge Wind Luftdruck Luftfeuchtigkeit
    00:00 +26°C° 0 mm 2 m/S 758 mmHg 89%
    01:00 +25°C° 0 mm 1 m/S 757 mmHg 90%
    02:00 +25°C° 0 mm 1 m/S 757 mmHg 90%
    03:00 +25°C° 0 mm 1 m/S 756 mmHg 91%
    04:00 +25°C° 0 mm 1 m/S 756 mmHg 91%
    05:00 +25°C° 0 mm 1 m/S 756 mmHg 91%
    06:00 +25°C° 0 mm 1 m/S 756 mmHg 92%
    07:00 +26°C° 0 mm 2 m/S 757 mmHg 84%
    08:00 +28°C° 0 mm 2 m/S 758 mmHg 76%
    09:00 +30°C° 0 mm 2 m/S 758 mmHg 68%
    10:00 +32°C° 0 mm 2 m/S 758 mmHg 61%
    11:00 +35°C° 0 mm 2 m/S 757 mmHg 54%
    12:00 +37°C° 0 mm 2 m/S 757 mmHg 47%
    13:00 +36°C° 0.1 mm 2 m/S 756 mmHg 50%
    14:00 +36°C° 0.1 mm 2 m/S 755 mmHg 52%
    15:00 +35°C° 0.1 mm 2 m/S 755 mmHg 54%
    16:00 +34°C° 0.2 mm 2 m/S 755 mmHg 63%
    17:00 +31°C° 0.2 mm 2 m/S 755 mmHg 72%
    18:00 +29°C° 0.2 mm 3 m/S 755 mmHg 81%
    19:00 +29°C° 0 mm 3 m/S 756 mmHg 83%
    20:00 +28°C° 0 mm 3 m/S 756 mmHg 84%
    21:00 +27°C° 0 mm 3 m/S 757 mmHg 86%
    22:00 +27°C° 0 mm 3 m/S 757 mmHg 87%
    23:00 +27°C° 0 mm 2 m/S 757 mmHg 88%

    26 September, Mittwoch

    Zeit Temperatur Niederschläge Wind Luftdruck Luftfeuchtigkeit
    00:00 +27°C° 0 mm 2 m/S 757 mmHg 89%
    01:00 +26°C° 0 mm 2 m/S 756 mmHg 90%
    02:00 +26°C° 0 mm 2 m/S 756 mmHg 91%
    03:00 +26°C° 0 mm 2 m/S 755 mmHg 92%
    04:00 +26°C° 0 mm 2 m/S 755 mmHg 92%
    05:00 +26°C° 0 mm 2 m/S 755 mmHg 93%
    06:00 +25°C° 0 mm 2 m/S 756 mmHg 93%
    07:00 +27°C° 0 mm 2 m/S 756 mmHg 86%
    08:00 +29°C° 0 mm 2 m/S 757 mmHg 79%
    09:00 +30°C° 0 mm 2 m/S 757 mmHg 72%
    10:00 +32°C° 0 mm 2 m/S 757 mmHg 65%
    11:00 +35°C° 0 mm 2 m/S 757 mmHg 59%
    12:00 +36°C° 0 mm 2 m/S 756 mmHg 52%
    13:00 +36°C° 0.3 mm 2 m/S 756 mmHg 55%
    14:00 +35°C° 0.3 mm 2 m/S 755 mmHg 58%
    15:00 +35°C° 0.3 mm 2 m/S 754 mmHg 61%
    16:00 +32°C° 0.3 mm 2 m/S 755 mmHg 67%
    17:00 +31°C° 0.3 mm 2 m/S 755 mmHg 74%
    18:00 +29°C° 0.3 mm 2 m/S 755 mmHg 81%
    19:00 +28°C° 0.1 mm 2 m/S 756 mmHg 83%
    20:00 +28°C° 0.1 mm 2 m/S 756 mmHg 85%
    21:00 +27°C° 0.1 mm 2 m/S 757 mmHg 88%
    22:00 +27°C° 0 mm 2 m/S 757 mmHg 88%
    23:00 +27°C° 0 mm 2 m/S 757 mmHg 89%

    27 September, Donnerstag

    Zeit Temperatur Niederschläge Wind Luftdruck Luftfeuchtigkeit
    00:00 +26°C° 0 mm 2 m/S 757 mmHg 90%
    01:00 +26°C° 0 mm 2 m/S 756 mmHg 91%
    02:00 +26°C° 0 mm 2 m/S 756 mmHg 91%
    03:00 +25°C° 0 mm 2 m/S 755 mmHg 92%
    04:00 +25°C° 0 mm 2 m/S 756 mmHg 93%
    05:00 +25°C° 0 mm 2 m/S 756 mmHg 93%
    06:00 +25°C° 0 mm 2 m/S 756 mmHg 93%
    07:00 +27°C° 0 mm 2 m/S 757 mmHg 85%
    08:00 +29°C° 0 mm 2 m/S 757 mmHg 78%
    09:00 +30°C° 0 mm 3 m/S 758 mmHg 70%
    10:00 +33°C° 0 mm 3 m/S 757 mmHg 63%
    11:00 +35°C° 0 mm 3 m/S 757 mmHg 56%
    12:00 +36°C° 0 mm 3 m/S 757 mmHg 49%
    13:00 +36°C° 0 mm 3 m/S 756 mmHg 48%
    14:00 +37°C° 0 mm 3 m/S 756 mmHg 47%
    15:00 +37°C° 0 mm 3 m/S 755 mmHg 46%
    16:00 +35°C° 0 mm 3 m/S 755 mmHg 52%
    17:00 +34°C° 0 mm 3 m/S 755 mmHg 58%
    18:00 +31°C° 0 mm 2 m/S 756 mmHg 65%
    19:00 +30°C° 0.1 mm 2 m/S 756 mmHg 71%
    20:00 +29°C° 0.1 mm 2 m/S 757 mmHg 77%
    21:00 +27°C° 0.1 mm 2 m/S 757 mmHg 84%
    22:00 +27°C° 0 mm 2 m/S 757 mmHg 85%
    23:00 +27°C° 0 mm 2 m/S 757 mmHg 86%
    Mehr zeigen